Retour au catalogue

CZ-6A R/B

ActifPO
NORAD 63922·ROCKET BODY·🇨🇳 China

Lancé May 11, 2025 depuis Taiyuan Satellite Launch Center

Loading…

Prochains Passages (prochaines 24 heures)

TLE

FraisSource: Space-Track

Époque: Sep 14, 2026, 15:23 UTC

1 63922U 25096E   26257.64153562  .00000317  00000-0  53471-4 0  9993
2 63922  86.0179 130.2264 0068319 194.0514 165.8800 14.64228867 71794

Suivez CZ-6A R/B en temps réel avec AllMySat

Download on the App Store